Content
SEND FEEDBACK

Daily
Averages
Monthly
Summary
United States of America

MALDEN, MISSOURI


Home > North America > United States > Missouri
Elevation: 295 feet     Latitude: 36 36N     Longitude: 089 59W

WEATHER
 
SELECT A DAY
Number of Records: 207,718;   Date Range: 1/1/95 - 7/29/14
 
SHARE

PRINT THIS DATA

[ ← Previous Day ]
WEATHER ALMANAC - NOVEMBER 1, 2013
[ Next Day → ]
[ °C ]   °F
Weather ElementAverageHighLow
Temperature58.9 °F71.1 °F (2:53 pm)50 °F (4:53 am)
Dewpoint43.9 °F48.9 °F (1:53 am)37.9 °F (4:53 pm)
Humidity61.6 %89 % (2:53 am)32 % (2:53 pm)
Barometer29.79 in29.89 in (11:53 pm)29.73 in (3:53 am)
Wind Speed7.2 mph12.7 mph (12:53 pm)
Wind Gust20.7 mph (1:53 pm)
Weather ElementAverage
Visibility10 mi
Wind DirectionWSW (251.7 °)

Weather ElementTotal
Precipitation---
Heating Degree Days4.5 (Base 65)
Growing Degree Days10.6 (Base 50)
Averaged from 23 records on November 1, 2013
WEATHER CONDITIONS BREAKOUT
WIND DIRECTION BREAKOUT
WEATHER BY HOUR - NOVEMBER 1, 2013
[ °C ]   °F
Local TimeTemperatureDewpointHumidityBarometerVisibilityWind DirectionWind SpeedGust SpeedPrecipitationEventsConditions
1:53 AM53.1 °F48.9 °F86 %29.75 in10.0 miSW (220°)5.8 mphClear
2:53 AM52.0 °F48.9 °F89 %29.75 in10.0 miSW (230°)3.5 mphClear
3:53 AM52.0 °F48.0 °F86 %29.73 in10.0 miSW (220°)4.6 mphClear
4:53 AM50.0 °F46.9 °F89 %29.74 in10.0 miCalmClear
5:53 AM50.0 °F46.9 °F89 %29.76 in10.0 miSSW (200°)4.6 mphClear
6:53 AM50.0 °F46.9 °F89 %29.76 in10.0 miSSW (210°)6.9 mphClear
7:53 AM50.0 °F46.9 °F89 %29.77 in10.0 miSW (220°)6.9 mphClear
8:53 AM53.1 °F48.9 °F86 %29.78 in10.0 miSW (230°)5.8 mphClear
9:53 AM57.9 °F48.9 °F72 %29.78 in10.0 miWSW (240°)6.9 mphClear
10:53 AM63.0 °F48.0 °F58 %29.78 in10.0 miWest (270°)8.1 mph17.3 mphClear
11:53 AM66.0 °F46.9 °F50 %29.79 in10.0 miWest (280°)11.5 mphClear
12:53 PM66.9 °F43.0 °F42 %29.78 in10.0 miWest (280°)12.7 mph18.4 mphClear
1:53 PM68.0 °F41.0 °F37 %29.76 in10.0 miWest (280°)12.7 mph20.7 mphClear
2:53 PM71.1 °F39.9 °F32 %29.75 in10.0 miWNW (290°)8.1 mphClear
3:53 PM70.0 °F39.9 °F33 %29.75 in10.0 miWNW (290°)11.5 mph20.7 mphClear
4:53 PM69.1 °F37.9 °F32 %29.76 in10.0 miWest (280°)10.4 mphClear
5:53 PM64.9 °F39.0 °F39 %29.78 in10.0 miWNW (290°)6.9 mphClear
6:53 PM63.0 °F39.9 °F43 %29.81 in10.0 miWNW (290°)5.8 mphMostly Cloudy
7:53 PM61.0 °F39.9 °F46 %29.84 in10.0 miWest (280°)6.9 mphClear
8:53 PM59.0 °F39.9 °F49 %29.86 in10.0 miWNW (290°)6.9 mphClear
9:53 PM57.0 °F41.0 °F55 %29.87 in10.0 miWNW (300°)6.9 mphClear
10:53 PM55.0 °F41.0 °F59 %29.88 in10.0 miWNW (290°)5.8 mphClear
11:53 PM53.1 °F42.1 °F66 %29.89 in10.0 miNW (310°)6.9 mphClear
Hourly data recorded from KPOF, located miles away from Malden, Missouri







STORIES FROM OUR PARTNERS